Weather in Mikhalkovo

Russia / Ivanovo Oblast     56°53′35″N   41°32′07″E
temp.,
°C
wind,
m/s
gust,
m/s
humid.,
%
clouds,
%
prec.,
mm/h
press.,
hPa
HPBL,
m
23 may, mon
mon2300:000nnw378361 0.0 1004156
03:00−2nw38956 0.0 1004199
06:00+1nw597794 0.0 1003581
09:00+4nw5864100 0.1 10021191
12:00+8nw6947100 0.0 10011732
15:00+8nw61051100 0.0 10011866
18:00+5nw61258100 0.0 10011771
21:00+1nw25100100 1.3 1001246
24 may, tue
tue2400:00+1wnw3799100 3.0 1000318
03:00+1nnw4898100 3.7 1001699
06:000nnw4794100 0.1 1003633
09:00+1nw4689100 0.1 1004651
12:00+3nw4580100 0.1 1006925
15:00+5nnw4680100 0.6 10071122
18:00+5nnw478398 0.7 1009904
21:00+3nw389368 1.1 1011345
25 may, wed
wed2500:000nw369869 0.0 1011118
03:00+2nw3696100 0.0 1012176
06:00+3wnw3790100 0.0 1012244
09:00+6nw588198 0.0 1013926
12:00+8nw577672 0.5 10131268
15:00+9nw687436 1.3 10131206
18:00+8nnw478499 1.2 1013606
21:00+5wnw2290100 1.5 101326
26 may, thu
thu2600:00+3wnw229193 0.0 101323
03:00+3w2291100 0.1 101241
06:00+4sw2493100 1.3 1011132
09:00+5w1391100 1.5 1010233
12:00+9nnw247799 0.1 1008932
15:00+11nw1266100 0.1 1006850
18:00+10e3371100 0.0 1004438
21:00+7ese378699 0.0 1003167
27 may, fri
fri2700:00+6ene3881100 0.0 1000215
03:00+5ene388562 0.0 999215
06:00+6ne368298 0.0 999210
09:00+11nne33635 0.0 1000809
12:00+14nw235129 0.0 10001606
15:00+15nw464898 0.0 10002068
18:00+11w5985100 0.4 1001563
21:00+8sw379744 0.6 1001174